Temperature
6 7 8 10 11 12 13 13 13 13 13 14 14 15 16 15 15 16 17 17 17 17 16 16 16 16 16 16 16 16 16 16 15 15 15 15 15 15 15 15 15 15 14 14
6 6 9 10 11 11 12 12 13 12 12 14 14 15 16 16 15 16 16 17 17 17 16 16 16 16 16 17 16 16 16 16 16 16 15 15 15 15 15 15 15 15 15 15
6 7 9 9 10 10 11 12 13 12 12 13 13 14 15 16 15 15 15 15 16 16 16 16 16 16 16 16 16 16 16 16 16 16 16 15 15 15 15 15 15 15 15 14
7 8 9 9 10 11 11 13 13 12 13 13 13 14 16 16 15 16 15 15 16 16 15 15 15 16 16 16 16 16 16 16 16 16 16 15 15 15 15 15 15 15 14 14
7 8 9 9 10 11 11 12 12 13 13 13 13 14 16 15 15 16 16 16 15 15 15 15 15 16 16 16 16 16 16 16 16 16 15 15 15 15 15 14 14 14 14 14
7 8 9 9 10 10 10 11 12 12 13 12 13 13 15 15 16 16 17 16 15 15 14 14 15 15 15 15 15 15 15 15 15 15 15 15 14 14 14 14 14 13 13 13
7 8 8 9 9 10 11 11 10 10 11 12 12 13 14 16 15 15 16 15 15 14 14 14 14 15 15 15 15 15 14 14 14 14 14 14 14 13 13 13 13 12 12 12
7 7 8 9 10 10 11 12 11 11 11 12 11 12 15 15 14 12 12 12 12 12 13 13 13 14 14 14 14 14 14 13 13 13 13 13 13 12 12 12 12 11 11 11
8 7 7 8 9 11 10 11 11 12 11 12 12 12 14 14 14 13 13 12 12 11 11 11 12 12 12 13 13 13 12 12 12 12 12 12 12 11 11 11 11 10 10 10
9 7 8 8 9 9 11 11 11 11 10 12 12 13 14 15 15 14 14 13 12 10 10 10 10 10 11 11 11 11 11 11 11 11 11 11 11 10 10 10 9 9 9 8
9 9 8 8 9 10 10 10 11 11 12 12 12 14 14 14 14 13 13 12 11 10 9 9 9 9 10 10 10 10 10 10 10 10 10 10 9 9 9 8 8 8 8 7
9 9 8 8 8 9 10 11 11 11 10 11 12 14 14 13 13 12 12 11 10 10 9 8 8 9 9 10 10 10 10 10 9 9 9 9 8 8 8 7 7 7 7 6
9 9 8 8 8 8 9 10 11 11 10 10 11 13 13 12 12 11 11 11 10 9 9 8 8 9 9 10 10 10 9 9 9 8 8 8 7 7 7 6 6 6 6 6
9 9 9 10 10 9 8 9 9 9 9 10 11 13 13 13 13 13 12 11 10 9 9 8 8 9 9 10 9 9 9 9 8 8 7 7 6 6 6 5 5 5 5 5
9 8 8 8 8 8 8 9 9 9 10 10 12 12 13 13 13 13 12 11 10 9 9 9 9 9 10 10 9 9 9 8 8 7 7 6 6 5 5 4 4 4 4 4
8 8 7 7 7 8 8 8 9 9 9 10 10 11 12 12 11 11 11 10 10 9 9 9 9 10 10 10 10 9 9 8 7 7 6 5 5 4 4 3 3 3 2 2
8 7 7 8 7 7 8 9 9 9 9 10 10 11 12 11 11 10 10 10 9 10 10 10 10 10 10 10 10 9 8 7 7 6 5 5 4 3 3 2 2 1 1 1
8 8 8 8 7 7 10 8 8 9 9 9 9 10 10 10 9 9 9 9 9 9 9 10 10 10 10 10 9 9 8 7 6 5 5 4 3 2 2 1 1 1 0 0
8 8 8 7 8 8 9 8 8 8 9 9 9 9 9 8 8 9 8 8 8 9 9 10 10 10 10 10 9 8 7 7 6 5 4 4 3 2 1 1 0 0 0 0
7 8 7 7 7 8 9 8 7 8 9 9 8 8 8 7 9 10 8 8 8 9 9 9 10 10 10 9 9 8 7 6 6 5 4 3 2 1 1 0 0 0 -0 -0
6 6 6 7 7 8 9 7 7 8 9 8 7 7 7 7 8 7 7 8 8 8 9 9 9 9 9 9 8 7 6 6 5 4 3 3 2 1 1 0 0 0 -0 -0
7 7 7 7 7 8 8 7 8 8 7 6 6 6 6 6 6 7 7 7 8 8 8 8 8 8 8 8 7 6 6 5 4 4 3 3 2 1 1 0 0 -0 -0 -0
6 7 8 8 8 7 6 6 6 5 6 6 6 6 6 6 6 6 7 7 7 7 7 7 7 7 7 7 6 6 5 4 4 3 3 2 2 1 1 0 0 -0 -0 -0
5 4 5 6 7 6 5 5 5 5 5 5 5 6 6 6 6 6 7 7 7 7 7 7 6 6 6 6 5 5 4 4 3 3 3 2 2 1 1 1 0 0 0 0
4 4 4 5 5 5 5 4 4 4 4 5 5 5 5 5 6 6 6 6 6 6 6 6 6 5 5 5 5 4 4 3 3 3 2 2 2 1 1 1 1 1 1 0
3 3 3 4 3 3 4 3 3 3 4 4 4 5 5 5 5 5 5 5 5 5 5 5 5 5 5 4 4 4 3 3 3 3 2 2 2 2 1 1 1 1 1 0
Wind_Speed
5 5 10 16 16 10 15 17 17 13 11 14 17 17 13 10 11 15 16 17 17 14 9 5 3 4 5 7 8 9 9 9 8 6 6 6 6 6 6 6 7 8 8 9
5 6 9 10 10 9 13 16 14 10 9 11 13 16 14 13 15 15 16 17 18 16 12 7 5 5 6 7 7 8 8 8 8 7 5 4 4 4 4 4 5 5 6 7
5 4 9 12 12 11 13 16 15 12 9 7 7 11 16 15 15 16 16 16 17 16 15 11 8 7 6 7 7 6 7 7 7 7 5 4 3 3 4 4 3 3 4 5
3 4 10 13 12 12 10 11 12 14 12 7 10 8 13 16 17 18 18 17 17 15 13 10 9 8 7 6 5 6 6 6 6 6 6 7 6 6 5 3 3 2 2 3
2 6 11 12 10 9 7 9 10 11 9 6 9 8 7 8 16 19 18 18 16 15 13 11 10 8 7 7 6 6 6 6 5 5 5 6 5 4 3 2 3 2 1 1
2 2 4 5 5 6 10 10 9 6 6 8 11 10 7 7 11 14 16 16 15 14 12 11 9 8 8 7 7 7 7 6 5 5 4 4 4 4 4 3 3 2 2 1
3 3 2 4 8 6 10 13 7 7 8 7 6 8 8 5 6 9 10 11 12 12 12 11 11 11 10 10 9 8 8 7 6 5 4 3 3 3 3 2 2 2 2 1
4 5 3 3 5 8 11 9 5 7 8 5 5 8 6 4 5 6 7 8 8 9 10 11 11 12 12 12 10 9 8 7 6 5 4 3 3 2 1 1 1 1 1 2
4 4 3 2 2 6 9 5 1 2 3 4 5 4 7 5 5 4 5 5 6 7 8 9 10 11 12 12 11 10 9 8 6 5 4 4 3 2 1 1 0 1 1 2
3 5 4 3 4 3 2 6 4 4 5 4 4 5 4 3 1 1 3 4 4 5 6 8 10 11 11 11 10 9 8 7 6 5 4 3 2 2 1 0 0 1 1 1
2 5 6 5 6 8 6 5 4 3 2 3 3 3 2 2 1 3 5 5 4 3 5 8 9 11 11 10 9 9 8 7 6 5 4 3 2 2 1 1 0 0 1 1
2 4 5 3 1 1 5 8 8 5 4 3 3 2 3 4 3 4 4 4 3 3 5 8 10 11 11 10 9 8 8 7 6 5 4 3 3 2 1 1 1 0 1 1
4 5 6 4 3 4 5 6 8 5 3 5 5 5 3 3 4 4 4 4 3 3 6 8 10 11 11 10 9 9 8 7 6 6 5 4 3 3 2 1 1 1 1 2
3 3 3 5 2 6 7 9 10 8 6 9 12 12 9 9 9 8 7 7 5 5 8 10 11 11 11 10 10 9 9 8 7 6 6 5 4 3 3 2 2 2 2 2
2 2 2 1 2 3 5 9 13 14 14 12 12 15 16 14 14 14 12 9 8 8 10 12 13 12 12 11 10 10 9 8 8 7 6 5 5 4 4 3 3 3 3 3
2 3 3 1 1 3 5 9 12 14 15 17 17 18 15 14 13 13 13 11 11 12 12 13 13 13 13 13 12 11 10 9 9 8 7 6 6 5 5 4 4 4 4 4
4 5 3 2 1 2 7 8 12 9 10 11 14 14 12 12 13 13 13 12 12 12 12 13 14 14 14 13 13 12 11 10 10 8 8 7 7 6 6 5 5 5 5 4
5 5 2 2 3 6 1 1 4 8 10 11 12 13 13 13 14 13 12 13 13 12 11 12 12 12 12 11 12 11 11 11 10 9 8 8 8 7 6 6 6 5 5 4
3 4 3 3 4 5 3 2 3 4 4 3 6 9 10 10 9 8 6 8 11 10 9 9 9 9 10 11 12 12 11 11 10 10 9 9 8 8 8 7 7 5 5 5
2 3 3 4 4 4 1 2 2 3 2 1 4 7 9 7 5 5 8 7 5 4 3 3 5 7 9 11 12 13 12 12 11 10 9 9 9 8 8 8 7 5 5 5
5 4 6 6 6 5 2 1 4 3 1 5 5 7 7 5 6 8 8 6 4 2 1 2 5 6 7 10 12 12 11 11 10 9 9 9 9 8 8 7 6 6 6 6
6 5 6 5 6 4 2 3 3 3 5 5 6 7 7 6 7 6 5 4 3 2 2 3 4 4 6 9 10 10 10 9 9 9 9 9 9 8 7 8 7 7 7 7
4 3 3 4 2 3 1 1 2 4 5 6 6 7 6 5 4 4 3 3 2 1 1 2 3 4 5 7 9 9 8 9 10 10 10 9 9 8 8 8 8 7 7 7
0 1 2 3 2 3 2 2 4 5 6 7 7 7 6 5 5 4 3 2 1 1 1 2 3 4 5 7 8 7 7 9 10 11 10 9 9 9 9 8 8 8 8 8
2 1 2 4 4 6 2 4 8 9 7 7 6 5 5 5 4 4 3 2 2 1 1 2 4 4 5 6 7 7 8 10 11 10 10 10 10 10 9 9 9 10 10 9
1 2 2 3 4 5 7 9 11 10 9 8 7 6 5 4 4 4 3 2 2 2 2 2 3 4 4 5 7 7 9 10 11 10 10 9 9 9 9 9 8 12 12 13
Wind_Direction
162 189 191 189 197 211 189 188 188 188 180 199 216 227 230 233 235 240 240 239 237 239 238 223 208 204 199 197 196 200 203 204 200 198 204 211 220 221 224 229 234 237 241 241
150 209 200 180 173 176 175 179 177 169 176 199 218 231 233 232 233 237 240 237 232 233 229 218 199 195 197 193 191 193 198 198 198 201 204 213 214 219 223 222 229 238 245 246
174 170 172 169 167 171 182 181 173 161 157 186 209 234 232 231 233 237 241 242 237 231 230 221 207 198 195 193 188 186 187 190 193 191 186 184 190 201 207 214 222 241 251 252
159 164 169 169 174 172 173 176 164 157 163 182 201 232 223 222 226 232 234 235 236 231 229 222 210 199 191 184 173 175 174 174 178 183 192 201 211 220 220 218 219 232 248 261
153 164 164 167 173 172 154 159 161 171 181 184 202 234 237 211 228 231 232 234 236 234 230 222 213 200 183 170 164 161 160 155 160 172 181 195 207 213 203 208 219 225 221 270
96 136 167 159 148 156 135 135 129 156 192 223 212 222 250 220 232 234 232 233 235 233 230 225 208 189 177 167 160 159 155 143 139 144 159 181 192 197 203 216 225 228 225 238
122 128 102 141 136 148 165 154 148 174 202 221 181 219 250 252 249 250 249 242 239 237 229 218 203 191 180 172 167 163 155 142 136 134 135 142 161 182 206 221 232 242 247 262
146 150 162 167 166 168 182 187 186 184 194 183 179 227 246 264 279 276 272 267 260 250 234 222 209 195 185 175 169 165 156 145 140 134 125 120 127 147 157 193 241 256 275 301
153 134 128 132 131 163 172 189 29 97 130 187 199 236 271 257 253 259 265 265 260 252 234 219 203 192 182 174 169 163 155 148 144 137 131 127 123 125 137 158 244 273 298 311
139 124 130 130 129 49 201 160 161 167 174 202 200 223 219 172 171 11 340 312 289 257 226 205 192 183 175 168 161 159 158 153 147 145 141 136 130 122 135 198 247 292 318 321
140 129 139 161 192 181 155 171 182 177 226 216 200 179 170 180 8 341 339 326 300 257 211 191 182 175 168 161 159 159 159 155 154 155 151 151 142 134 142 154 126 321 332 341
145 132 136 150 83 274 216 200 191 195 198 218 235 210 142 222 273 291 310 319 295 236 201 186 177 172 170 167 166 166 167 166 164 160 159 155 151 155 160 145 106 72 59 47
147 144 137 154 192 200 214 210 213 215 194 204 223 233 142 220 251 266 291 307 290 216 192 185 182 181 179 176 175 175 175 172 167 165 166 167 171 173 168 148 124 108 102 92
148 161 204 190 168 176 195 206 206 201 215 231 237 250 244 253 266 279 287 290 279 232 206 196 193 192 188 185 183 182 180 176 173 173 176 181 180 175 162 152 144 127 118 109
147 161 155 100 103 161 205 213 211 218 230 242 253 256 262 270 278 286 288 281 263 239 219 210 204 199 194 191 189 187 183 180 178 179 184 185 177 169 164 162 152 139 130 118
136 143 143 159 192 221 243 235 228 232 240 247 259 268 273 281 282 280 278 271 256 244 229 218 212 206 202 198 193 188 186 182 182 185 187 181 177 175 175 168 158 150 137 126
163 157 170 190 173 249 255 241 225 224 227 238 252 266 287 287 281 279 279 271 258 250 236 223 216 212 207 201 193 190 185 178 183 187 185 182 181 181 177 168 164 160 148 136
173 173 181 177 185 234 249 100 229 234 250 247 260 277 288 291 293 287 279 272 265 254 241 230 221 215 207 196 189 183 176 178 182 186 187 184 183 182 176 172 171 164 154 149
202 185 180 198 235 268 282 214 201 220 266 259 265 286 302 310 295 280 288 278 265 262 250 237 222 208 192 184 178 173 175 179 184 189 189 187 185 182 179 178 173 165 160 158
165 197 203 198 230 245 124 102 180 212 231 26 303 309 320 321 305 338 355 333 305 283 257 217 188 177 177 174 170 173 178 184 191 191 189 186 185 185 184 180 171 168 166 166
177 193 215 222 238 264 305 172 173 225 9 346 322 317 317 299 292 317 330 339 347 360 45 132 153 164 169 165 170 178 183 192 190 184 181 182 184 185 181 175 173 169 170 171
198 199 207 212 225 246 84 149 195 329 337 317 317 320 314 301 299 307 322 339 2 33 75 113 137 147 156 167 175 183 191 186 176 176 179 182 183 181 178 178 176 177 180 186
218 233 237 226 237 33 57 195 339 332 313 318 317 317 313 307 309 317 320 327 353 29 103 136 151 154 166 180 187 193 190 176 175 179 184 185 184 185 184 186 185 186 193 203
224 338 270 273 289 326 311 331 336 327 311 311 311 310 307 300 307 313 313 311 309 259 196 180 176 184 190 195 202 203 186 179 182 189 190 188 190 192 193 196 197 200 203 208
343 337 289 275 315 331 340 348 337 328 321 321 323 315 308 301 302 305 302 298 291 279 245 217 213 216 213 205 208 204 191 186 192 196 196 195 198 199 201 205 208 210 215 216
13 338 304 298 339 313 305 323 325 319 317 318 315 312 318 308 298 301 295 298 289 275 265 245 240 240 234 219 217 209 200 196 198 201 202 201 201 203 207 210 217 225 225 225
Height
1492 1494 1491 1489 1490 1489 1489 1493 1499 1503 1509 1510 1510 1510 1512 1515 1516 1517 1517 1519 1522 1525 1528 1529 1531 1533 1535 1537 1539 1542 1544 1547 1549 1550 1552 1554 1555 1556 1557 1558 1559 1559 1560 1560
1494 1493 1490 1491 1493 1494 1495 1496 1500 1506 1509 1509 1509 1509 1509 1511 1512 1513 1513 1515 1517 1521 1524 1526 1527 1529 1532 1534 1536 1539 1541 1543 1546 1548 1549 1551 1552 1553 1554 1554 1555 1555 1556 1556
1491 1492 1491 1492 1494 1495 1496 1495 1497 1502 1509 1510 1510 1509 1506 1506 1508 1509 1510 1511 1513 1516 1519 1521 1524 1526 1528 1531 1533 1536 1538 1540 1542 1544 1546 1548 1549 1549 1550 1550 1550 1551 1551 1551
1492 1491 1491 1492 1494 1494 1497 1495 1498 1501 1504 1507 1509 1504 1497 1499 1502 1503 1505 1507 1509 1512 1514 1517 1519 1522 1524 1527 1529 1532 1534 1536 1539 1541 1542 1544 1545 1545 1545 1546 1546 1546 1546 1546
1491 1491 1491 1492 1494 1494 1496 1498 1499 1500 1501 1505 1507 1506 1493 1496 1497 1497 1499 1502 1505 1508 1511 1513 1515 1518 1520 1523 1525 1528 1530 1532 1534 1536 1538 1539 1540 1541 1541 1541 1541 1541 1540 1540
1492 1493 1493 1493 1495 1497 1499 1501 1503 1503 1504 1510 1503 1505 1496 1492 1491 1492 1495 1498 1501 1504 1506 1509 1511 1513 1516 1519 1521 1524 1526 1528 1530 1532 1533 1535 1536 1536 1536 1536 1536 1535 1535 1534
1493 1494 1495 1495 1497 1500 1499 1499 1507 1511 1511 1505 1503 1503 1494 1488 1490 1491 1493 1495 1497 1500 1502 1503 1505 1508 1511 1514 1517 1520 1522 1524 1526 1528 1529 1530 1531 1531 1531 1531 1531 1530 1530 1529
1490 1493 1495 1495 1494 1495 1496 1494 1497 1500 1502 1500 1507 1501 1490 1488 1491 1492 1493 1494 1494 1495 1497 1498 1500 1503 1506 1509 1513 1516 1518 1520 1522 1524 1525 1526 1526 1527 1526 1526 1526 1525 1525 1524
1486 1492 1496 1496 1496 1495 1496 1496 1498 1496 1499 1499 1497 1496 1491 1487 1489 1490 1491 1491 1491 1492 1492 1493 1496 1498 1501 1504 1508 1512 1515 1517 1519 1520 1521 1522 1522 1522 1522 1522 1521 1520 1520 1519
1485 1491 1495 1496 1496 1498 1495 1495 1498 1500 1502 1497 1494 1493 1486 1484 1485 1486 1488 1488 1488 1488 1488 1489 1491 1494 1497 1501 1505 1509 1512 1514 1516 1517 1517 1518 1518 1518 1517 1517 1516 1516 1515 1514
1486 1488 1496 1496 1495 1494 1497 1498 1495 1495 1494 1494 1493 1488 1483 1485 1486 1487 1487 1487 1486 1486 1486 1486 1488 1491 1495 1499 1503 1506 1509 1511 1512 1513 1514 1514 1514 1513 1513 1513 1512 1511 1511 1510
1485 1485 1493 1496 1498 1497 1494 1491 1493 1496 1500 1496 1491 1488 1484 1486 1487 1488 1487 1486 1485 1484 1484 1485 1487 1490 1493 1497 1501 1504 1506 1508 1509 1510 1510 1510 1510 1509 1509 1508 1508 1507 1507 1506
1484 1486 1492 1496 1499 1498 1495 1494 1493 1493 1495 1497 1495 1488 1484 1486 1486 1486 1486 1485 1484 1483 1483 1484 1486 1488 1492 1495 1498 1501 1503 1505 1506 1506 1506 1506 1506 1505 1505 1504 1504 1503 1503 1502
1485 1485 1485 1484 1482 1487 1492 1493 1493 1495 1497 1493 1489 1483 1481 1481 1482 1483 1483 1483 1483 1482 1482 1483 1485 1487 1490 1493 1496 1498 1500 1501 1502 1502 1502 1502 1502 1501 1501 1500 1499 1499 1499 1499
1484 1486 1488 1488 1489 1489 1490 1489 1491 1492 1488 1488 1481 1481 1478 1479 1480 1481 1481 1480 1480 1480 1480 1481 1482 1485 1487 1490 1493 1495 1496 1498 1498 1498 1498 1498 1498 1497 1496 1496 1496 1495 1495 1495
1485 1488 1491 1491 1490 1490 1490 1487 1488 1488 1486 1484 1483 1480 1477 1478 1479 1478 1477 1477 1476 1476 1476 1477 1479 1481 1484 1486 1489 1491 1492 1493 1494 1495 1495 1494 1493 1493 1492 1492 1492 1492 1492 1492
1485 1487 1489 1486 1490 1489 1484 1480 1482 1483 1482 1481 1479 1476 1475 1476 1475 1474 1473 1472 1471 1471 1472 1473 1475 1477 1480 1482 1485 1487 1488 1489 1490 1490 1490 1490 1489 1489 1489 1489 1489 1490 1490 1490
1484 1485 1486 1486 1490 1490 1478 1481 1480 1480 1479 1479 1478 1476 1476 1474 1472 1470 1469 1467 1466 1466 1467 1468 1470 1473 1475 1478 1480 1482 1484 1485 1486 1486 1486 1486 1486 1486 1486 1486 1487 1488 1488 1489
1485 1484 1485 1485 1483 1478 1477 1479 1480 1479 1476 1477 1476 1475 1473 1472 1469 1465 1464 1462 1461 1462 1463 1464 1466 1468 1471 1473 1476 1478 1479 1480 1481 1482 1482 1482 1482 1483 1483 1484 1485 1486 1487 1487
1486 1485 1485 1485 1483 1479 1476 1478 1479 1480 1474 1476 1476 1474 1472 1470 1465 1462 1462 1459 1458 1458 1459 1460 1462 1465 1467 1469 1471 1473 1474 1476 1477 1478 1479 1479 1479 1480 1481 1482 1483 1484 1485 1486
1484 1485 1484 1483 1481 1474 1476 1478 1479 1477 1474 1476 1474 1473 1471 1469 1467 1465 1461 1459 1458 1457 1458 1459 1460 1462 1464 1466 1467 1469 1471 1472 1474 1475 1475 1476 1476 1477 1478 1479 1481 1482 1483 1484
1478 1479 1479 1479 1481 1478 1477 1477 1477 1476 1476 1475 1473 1472 1470 1467 1465 1463 1461 1459 1458 1458 1458 1459 1460 1461 1462 1463 1465 1466 1468 1469 1470 1471 1472 1473 1474 1475 1476 1477 1478 1479 1481 1481
1479 1479 1476 1476 1476 1477 1477 1478 1478 1477 1476 1474 1472 1470 1468 1466 1464 1463 1461 1460 1459 1459 1459 1459 1459 1460 1461 1462 1463 1464 1465 1466 1467 1468 1469 1470 1471 1472 1473 1474 1475 1477 1478 1479
1482 1483 1481 1478 1476 1478 1477 1477 1476 1475 1474 1472 1471 1469 1467 1466 1464 1462 1461 1460 1459 1459 1459 1459 1459 1459 1459 1460 1460 1461 1462 1463 1464 1464 1465 1467 1468 1469 1470 1471 1472 1473 1474 1475
1484 1483 1482 1479 1479 1477 1476 1476 1475 1473 1471 1470 1468 1467 1466 1464 1463 1462 1460 1459 1459 1458 1458 1457 1457 1457 1458 1458 1458 1458 1459 1459 1460 1461 1462 1463 1464 1465 1466 1467 1469 1470 1471 1472
1486 1486 1484 1480 1481 1481 1478 1476 1474 1471 1469 1468 1466 1464 1463 1462 1461 1460 1459 1458 1457 1456 1456 1455 1455 1455 1454 1454 1454 1455 1455 1455 1456 1456 1457 1458 1460 1461 1462 1463 1464 1465 1467 1468